sat.trackr.live / text

‹ back to catalog

STARLINK-6239

NORAD 56423 · 2023-061BB

PAYLOAD ACTIVE UNKNOWN

§ Identity

Operator
Country
US
Launch date
2023-05-04
Launch site
AFETR
Launch vehicle
Mass (kg)
RCS (m²)

Purposes: comms

External: N2YO · Heavens-Above · Gunter

§ Orbital elements

Epoch: 2026-09-20T10:28:05.081952Z

Period
94.27 min
Inclination
43.0053°
Eccentricity
0.0001297
Mean motion
15.27576569 rev/d
Perigee alt
482.2 km
Apogee alt
483.9 km
Semi-major
6,861.2 km
B*
1.1778e-5
RAAN
159.7354°
Arg perigee
266.6579°
Mean anomaly
93.4124°
Rev number
18,674

§ Raw data

STARLINK-62391 56423U 23061BB  26263.43616993  .00000062  00000+0  11778-4 0  99972 56423  43.0053 159.7354 0001297 266.6579  93.4124 15.27576569186743

JSON: /api/v1/satellites/56423 · /tle

For live sub-satellite position, see the globe view (requires WebGL).

§ Visibility from observer

Set your observer location to see the next 7 days of passes ≥ 10°. The values pass through the URL so the page stays shareable.

No JS? Fill the form by hand. The geolocation button needs JavaScript.